Location: ??????????
(44.2167°N, 135.5333°E)
Time: 15:01:01
(UTC+00:00)

Cosmos 1655 Rocket - Pass Details

Date: 15 June 2025
Orbit: 970 x 1005 km, 83.0° (Epoch: 15 July)

Event Time Altitude Azimuth Distance (km) Brightness Sun altitude
Rises 18:09:38 0° 177° (S) 3,683 6.6 -9.5°
Reaches altitude 10° 18:12:09 10° 175° (S) 2,743 6.0 -9.2°
Maximum altitude 18:18:23 68° 94° (E) 1,073 4.4 -8.5°
Drops below altitude 10° 18:24:43 10° 13° (NNE) 2,783 7.4 -7.6°
Sets 18:27:16 0° 11° (N) 3,740 8.0 -7.3°
